Location: Cornalba
(45.8500°N, 9.7333°E)
Time: 02:34:41
(UTC+00:00)

Daily predictions for brighter satellites

Satellite Brightness Start Highest point End
(mag) Time Altitude Azimuth Time Altitude Azimuth Time Altitude Azimuth
CENTAUR R/B 4.2 02:14:21 40° E 02:14:21 40° E 02:20:16 10° ESE
Lacrosse 5 4.3 02:52:48 18° E 02:52:48 18° E 02:54:48 10° ENE
Cosmos 2263 Rocket 3.8 03:01:26 29° NE 03:01:26 29° NE 03:04:27 10° NE
SJ 16-02 4.0 03:08:47 17° ENE 03:08:47 17° ENE 03:10:19 10° NE
CZ-4C R/B 4.0 03:25:49 18° SSE 03:28:00 25° ESE 03:32:28 10° ENE
BREEZE-M DEB (TANK) 4.4 03:30:33 71° NNW 03:31:04 75° N 03:35:21 10° E
ATLAS 3B R/B 3.6 03:30:35 36° N 03:32:36 44° NE 03:39:22 10° ESE
Cosmos 1943 3.9 03:36:00 47° SSE 03:36:00 47° SSE 03:39:57 10° SSE
Lacrosse 4 Rocket 3.3 03:38:11 27° ESE 03:38:11 27° ESE 03:40:21 10° SE
Cosmos 923 Rocket 4.3 03:53:38 55° NNE 03:54:30 64° ENE 03:59:46 10° SSE
ALOS 3.0 03:49:50 10° NNE 03:53:16 47° NE 03:53:16 47° NE
NOSS 3-2 (C) 4.1 04:00:08 53° WSW 04:00:48 55° WSW 04:09:05 10° SSE
NOSS 3-4 (A) 3.2 04:00:50 70° SW 04:01:35 85° NW 04:07:56 10° NE
NOSS 3-4 (C) 3.2 04:00:54 69° SW 04:01:42 86° NW 04:08:04 10° NE
CENTAUR R/B 3.2 04:01:35 51° W 04:02:48 55° WSW 04:11:21 10° SSE
ARGOS Delta rocket 4.1 04:00:26 10° N 04:04:43 61° N 04:04:43 61° N
Cosmos 158 Rocket 3.8 04:10:38 68° N 04:11:15 84° ENE 04:16:15 10° SSE
SL-4 R/B 3.3 04:15:03 30° NNE 04:15:03 30° NNE 04:17:29 10° ENE
Cosmos 1151 Rocket 3.5 04:17:01 49° S 04:17:01 49° S 04:20:11 10° S
SKYMED 2 4.0 04:12:53 10° SSE 04:17:09 60° ENE 04:19:24 27° N
Cosmos 1782 3.2 04:16:34 50° NNE 04:17:21 63° E 04:21:21 10° SSE
Cosmos 1844 Rocket 3.9 04:12:13 10° S 04:17:29 42° ESE 04:22:48 10° NE
ATLAS 2AS CENTAUR R/B 2.9 04:15:30 21° SW 04:21:12 83° NW 04:29:07 10° NE
ERS-2 4.0 04:17:54 10° S 04:19:17 22° S 04:19:17 22° S
Cosmos 1680 Rocket 3.5 04:20:02 33° NNW 04:22:31 83° ENE 04:27:49 10° SSE
SJ-12 4.3 04:19:30 10° NNE 04:23:32 62° E 04:27:32 10° S
FALCON 9 DEB 4.2 04:24:40 40° ENE 04:24:40 40° ENE 04:26:52 10° ENE
ATLAS 5 CENTAUR R/B 3.7 04:31:19 18° N 04:31:19 18° N 04:32:11 10° NNE
Atlas Centaur 2 4.3 04:26:41 12° SW 04:29:57 18° S 04:33:38 10° SE
RESURS DK-1 2.9 04:27:33 10° SSW 04:31:38 60° ESE 04:35:45 10° NE
CRYOSAT 2 4.2 04:27:23 10° S 04:32:14 85° W 04:37:08 10° N
ATLAS CENTAUR R/B 1.8 04:32:06 42° N 04:32:58 52° NE 04:36:49 10° SE
Lacrosse 5 1.7 04:32:03 49° WSW 04:33:22 75° NW 04:38:28 10° NE
ADEOS 3.5 04:29:07 10° N 04:34:17 63° WNW 04:39:26 10° SSW
Cosmos 1328 Rocket 3.5 04:35:39 57° WNW 04:35:54 58° W 04:40:14 10° S
Cosmos 1500 Rocket 4.5 04:32:01 10° SSE 04:36:09 48° E 04:40:20 10° NNE
Meteor PRIRODA 4.2 04:32:46 10° NNE 04:36:28 58° E 04:40:08 10° S
H-2A R/B 4.2 04:36:38 10° NNE 04:40:21 40° E 04:44:00 10° SSE
Cosmos 2112 Rocket 3.9 04:38:53 23° NNW 04:42:16 80° WSW 04:47:37 10° SSE
Cosmos 2263 Rocket 2.9 04:43:11 33° NW 04:43:11 33° NW 04:48:14 10° NNE
Gbstr 26 Del rocket 2.5 04:43:34 62° W 04:44:05 76° SSW 04:47:59 10° SE
Meteor 1-4 Rocket 4.4 04:46:47 17° SSW 04:46:47 17° SSW 04:47:45 10° SSW
SJ 16-02 1.9 04:45:51 38° NW 04:45:51 38° NW 04:49:28 10° N
Cosmos 1898 Rocket 3.4 04:47:24 10° SSW 04:52:43 82° WNW 04:58:06 10° NNE
Meteor 1-26 Rocket 4.5 04:48:59 15° NNW 04:53:30 46° W 04:58:48 10° SSW
CZ-2C R/B 4.5 04:50:29 10° ESE 04:55:09 30° ENE 04:59:45 10° N
FALCON 9 DEB 2.9 04:56:35 58° WNW 04:56:56 64° NNW 05:00:08 10° NE
FALCON 9 DEB 2.9 04:56:45 57° WNW 04:57:03 61° NNW 05:00:15 10° NE
FENGYUN 3A 4.2 04:54:09 10° N 04:59:02 35° WNW 05:03:53 10° SW
Envisat 4.1 04:54:39 10° NNE 04:59:35 48° E 05:04:28 10° S
Cosmos 1743 Rocket 3.5 04:55:36 10° S 05:00:03 89° ESE 05:04:34 10° N
Cosmos 1408 Rocket 3.8 04:57:49 10° SSW 05:02:07 46° WNW 05:06:26 10° N
H-2A R/B 3.9 04:59:24 10° NNE 05:02:59 36° E 05:06:32 10° SSE
Cosmos 2082 Rocket 4.4 05:00:22 10° N 05:04:14 18° NE 05:08:07 10° E
Cosmos 2181 Rocket 4.3 04:58:51 10° NNW 05:04:33 40° W 05:10:10 10° SSW
NOSS 7 (H) 4.1 05:01:44 13° SW 05:04:46 89° WNW 05:07:43 10° NE
COSMO-SKYMED 1 2.9 05:01:07 10° S 05:05:14 42° W 05:07:59 19° NW
USA 307 4.2 05:05:08 21° NNW 05:07:03 30° N 05:10:53 10° ENE
Cosmos 1937 Rocket 3.4 05:04:39 10° SSW 05:09:48 80° WNW 05:15:02 10° NNE
USA 308 4.2 05:11:14 19° NW 05:13:27 30° N 05:17:18 10° ENE
Lacrosse 4 Rocket 3.1 05:14:32 17° WSW 05:14:32 17° WSW 05:17:11 10° SSW
Meteor 2-3 Rocket 4.4 05:09:14 10° SW 05:14:22 33° WNW 05:19:34 10° N
Cosmos 1833 Rocket 4.2 05:09:59 10° N 05:15:00 31° NE 05:19:57 10° ESE
MOS 1 Rocket 3.4 05:10:46 10° SSE 05:15:34 84° WSW 05:20:44 10° NNW
Cosmos 2154 Rocket 4.0 05:09:38 10° S 05:15:51 89° ESE 05:22:11 10° N
CZ-4C R/B 2.2 05:11:05 11° WSW 05:15:55 56° NW 05:21:54 10° NE
CZ-4B R/B 3.4 05:13:30 10° N 05:17:48 45° WNW 05:22:00 10° SW
Cosmos 1689 Rocket 3.0 05:15:48 10° SSW 05:18:12 27° W 05:18:12 27° W
Meteor 1-27 Rocket 4.2 05:13:23 10° N 05:19:09 68° ENE 05:24:59 10° SSE
Cosmos 1805 Rocket 3.9 05:14:50 10° S 05:19:14 72° E 05:23:42 10° NNE
FALCON 9 DEB 3.3 05:18:33 28° W 05:19:50 45° NNW 05:22:57 10° NE
Meteor 1-10 Rocket 4.1 05:15:35 10° NNW 05:21:09 75° W 05:26:44 10° S
ATLAS 3B R/B 3.0 05:17:52 15° NW 05:23:28 52° WSW 05:30:25 10° SSE
Aureole 2 Rocket 1.4 05:21:12 10° SSW 05:23:44 82° WNW 05:26:17 10° NNE
COSMOS 2406 4.3 05:19:42 10° NNW 05:25:13 44° ENE 05:30:43 10° SE
Cosmos 1862 3.4 05:22:53 10° SSW 05:26:51 53° WNW 05:30:51 10° N
Genesis I 3.5 05:24:57 10° WSW 05:28:35 42° NW 05:32:17 10° NNE
YAOGAN 6 2.4 05:25:05 10° NNE 05:28:37 89° ESE 05:32:05 10° SSW
ALOS 3.7 05:28:33 10° NNW 05:31:23 16° WNW 05:31:45 16° WNW
Cosmos 2341 Rocket 4.5 05:25:46 10° S 05:31:53 66° E 05:38:03 10° NNE
Cosmos 2278 Rocket 4.2 05:27:59 10° SSE 05:32:58 33° ESE 05:37:59 10° NE
Cosmos 2327 Rocket 4.4 05:29:17 10° SSW 05:35:20 64° W 05:41:24 10° N
Cosmos 2074 Rocket 4.3 05:31:01 10° SW 05:36:51 42° WNW 05:42:44 10° N
PSLV R/B 3.8 05:33:36 10° N 05:37:25 56° WNW 05:41:07 10° SSW
USA 305 3.9 05:38:55 12° NW 05:42:27 36° NNE 05:46:28 10° E
BREEZE M DEB (TANK) 2.8 05:35:18 10° WSW 05:42:31 68° SSE 05:45:10 10° ENE
Cosmos 405 Rocket 3.1 05:39:18 10° SW 05:42:45 37° WNW 05:46:16 10° N
SL-24 DEB 4.3 05:38:03 10° S 05:42:47 68° W 05:47:34 10° N
NOAA 12 4.5 05:41:13 10° NNE 05:46:30 71° ESE 05:51:43 10° S
EO 1 Delta rocket 4.5 05:41:58 10° SSW 05:46:36 36° W 05:50:53 10° NNW
Cosmos 1812 3.5 05:44:03 10° NNW 05:47:27 30° W 05:50:50 10° SSW
Cosmos 1295 Rocket 4.4 05:42:15 10° SSW 05:48:17 64° WNW 05:54:21 10° N
Cosmos 2228 Rocket 3.7 05:45:59 10° NNW 05:49:59 34° W 05:53:56 10° SSW
USA 306 3.8 05:47:01 11° NW 05:50:57 38° NNE 05:54:59 10° E
Cosmos 1633 Rocket 3.6 05:48:26 10° S 05:52:49 63° E 05:57:12 10° NNE
SL-4 R/B 2.6 05:50:37 11° WNW 05:54:06 38° N 05:57:30 10° E
USA 234 3.4 05:51:18 10° NE 05:57:52 82° SE 06:04:26 10° SW
Cosmos 1356 3.3 05:54:57 10° SSW 05:58:21 77° W 06:01:47 10° N
FALCON 9 DEB 4.1 05:57:02 10° WNW 05:59:52 28° NNW 06:02:43 10° NE
Cosmos 1844 Rocket 3.3 05:56:20 10° WSW 06:01:28 35° NW 06:06:39 10° NNE
FALCON 9 DEB 4.1 06:00:08 10° NW 06:03:25 38° NNE 06:06:41 10° E
Cosmos 1707 Rocket 3.6 06:02:51 10° NNW 06:07:07 58° W 06:11:21 10° S
EXPRESS MD2 4.3 06:03:53 10° WNW 06:08:02 85° SSW 06:16:49 10° ESE
MOS 1-B 4.5 06:02:54 10° N 06:08:37 57° WNW 06:14:16 10° SW
COSMOS 2455 2.9 06:03:35 10° SW 06:09:33 62° NW 06:15:34 10° NNE
RESURS DK-1 3.9 06:07:11 10° W 06:10:03 18° NW 06:12:55 10° N
BREEZE-M (TANK) 3.4 06:04:47 10° SW 06:11:10 51° SSE 06:13:38 10° ENE
NOAA 6 4.3 06:06:52 10° N 06:11:44 44° WNW 06:16:33 10° SW
BREEZE-M DEB 4.3 06:04:34 10° WNW 06:11:59 33° SW 06:14:50 10° SSE
ATLAS 2AS CENTAUR R/B 3.8 06:06:24 10° W 06:13:19 31° NNW 06:20:04 10° NNE
